www.pogodaiklimat.ru

Погода и климат >> Архив погоды >> Соломоновы Острова >> Манда


ПОГОДА в Манде

  • Прогноз погоды в Манде
  • Монитор погоды в Манде

АРХИВ ПОГОДЫ в Манде

Время (UTC), дата Ветер
(напр.,м/с)
 
Видим.   Явления Облачность Т
(С)
Тd
(С)
f
(%)
Тe
(С)
Тes
(С)
Комфортность P
(гПа)
Po
(гПа)
Тmin
(С)
Tmax
(С)
R
(мм)
R24
(мм)
S
(см)
09 11.02 З 5 15 км мгла 10/4 500 м
[Cb cap As trans]
+27.8 +26.5 93 +43 +43 опасность
перегрева
1006.4 1005.7 0.8
12 11.02 З 6 10 км слаб. ливневой дождь 10/8 500 м
[Cu Sc Ac As]
+27.8 +26.3 92 +42 +42 опасность
перегрева
1008.2 1007.5 0.6
15 11.02 ЮЗ 6 15 км мгла 9/3 480 м
[Cu Sc Ac trans Cs]
+28.4 +25.1 82 +41 +41 опасность
перегрева
1005.8 1005.1 12
18 11.02 З 6 15 км мгла 6/3 480 м
[Cu Sc Ac trans Cs]
+26.5 +24.6 89 +37 +37 очень
душно
1005.1 1004.4 4
21 11.02 ЮЗ 7 20 км мгла 6/4 500 м
[Cu Sc Ac trans Ci sp]
+28.6 +25.5 83 +42 +43 опасность
перегрева
1007.1 1006.4
00 12.02 ЮЗ 9 15 км в посл. час ливневой дождь 9/6 540 м
[Cu Sc Ac trans Cs]
+30.0 +25.5 77 +44 +45 опасность
перегрева
1008.3 1007.6 +24.6 1 25
03 12.02 З 6 15 км мгла 9/4 540 м
[Cu Sc Ac trans Cs]
+30.2 +25.5 76 +44 +45 опасность
перегрева
1006.1 1005.4
06 12.02 З 6 15 км мгла 9/5 500 м
[Cu Sc Ac trans Cs]
+29.5 +24.7 75 +42 +42 опасность
перегрева
1005.5 1004.8
09 12.02 З 4 15 км гроза без осадков {ливн. осадки} 9/5 480 м
[Cb cap Ac As Cs]
+25.8 +24.9 95 +37 +37 очень
душно
1007.9 1007.2 8
12 12.02 З 6 10 км гроза без осадков {ливн. осадки} 10/6 480 м
[Cb cap Ac As]
+25.8 +24.6 93 +36 +36 очень
душно
1008.8 1008.1 3
21 12.02 ЮЗ 5 20 км в посл. час ливневой дождь 10/6 480 м
[Cb cap As op]
+26.3 +24.2 88 +37 +37 очень
душно
1007.7 1007.0 1
00 13.02 З 8 10 км слаб. ливневой дождь 10/5 480 м
[Cb cap As op]
+24.2 +23.7 97 +33 +33 очень
душно
1008.6 1007.9 +24.0 15 41
03 13.02 З 8 20 км мгла 8/3 540 м
[Cu Sc Ac trans Cs]
+30.3 +24.4 71 +43 +44 опасность
перегрева
1006.4 1005.7
06 13.02 З 8 20 км мгла 9/6 500 м
[Cb cap Ac trans Cs]
+29.1 +24.6 77 +41 +41 опасность
перегрева
1005.4 1004.7
09 13.02 З 6 15 км мгла 9/3 480 м
[Cu Sc Ac trans Cs]
+29.0 +24.1 75 +40 +40 очень
душно
1007.0 1006.3
12 13.02 З 6 15 км в посл. час ливневой дождь 9/3 480 м
[Cu Sc Ac trans Cs]
+28.1 +24.3 80 +39 +39 очень
душно
1007.8 1007.1 0.6
18 13.02 З 6 10 км осадки на расстоянии {ливн. осадки} 9/4 480 м
[Cu Sc Ac trans Cs]
+28.5 +23.1 73 +38 +38 очень
душно
1005.7 1005.0 1
21 13.02 З 2 15 км осадки на расстоянии {ливн. осадки} 9/4 480 м
[Cu Sc Ac As Cs]
+25.8 +25.6 99 +38 +38 очень
душно
1008.3 1007.6 1
00 14.02 З 6 20 км осадки на расстоянии 9/4 540 м
[Cu med, cong Cs]
+30.5 +24.8 72 +44 +47 опасность
перегрева
1008.2 1007.5 +24.8 3
03 14.02 З 8 20 км мгла 10/5 540 м
[Cb cap Ac trans Cs]
+30.9 +25.5 73 +45 +45 опасность
перегрева
1006.3 1005.6
06 14.02 З 7 20 км мгла 10/4 540 м
[Cb cap Ac As]
+29.7 +24.2 72 +41 +41 опасность
перегрева
1006.3 1005.6 0.8
09 14.02 ЮЗ 8 15 км слаб. ливневой дождь 10/6 500 м
[Cb cap Ac As]
+27.2 +25.3 89 +39 +39 очень
душно
1008.1 1007.4 0.2
12 14.02 З 4 15 км осадки на расстоянии {ливн. осадки} 10/5 500 м
[Cb cap Ac trans Cs]
+25.6 +22.7 84 +34 +34 очень
душно
1009.4 1008.7 0.6
15 14.02 З 6 20 км мгла 10/3 480 м
[Cu Sc Ac trans Cs]
+28.7 +24.0 76 +40 +40 очень
душно
1007.1 1006.4
18 14.02 З 5 20 км мгла 4/1 480 м
[Cu med, cong Ci sp]
+27.3 +23.4 79 +37 +37 очень
душно
1006.1 1005.4
21 14.02 З 6 20 км мгла 9/3 540 м
[Cu Sc Cs]
+29.8 +23.0 67 +40 +40 очень
душно
1007.9 1007.2
00 15.02 З 6 20 км мгла 6/1 540 м
[Cu med, cong Cs]
+30.7 +24.2 68 +43 +48 опасность
перегрева
1008.3 1007.6 +25.5 2
03 15.02 З 3 20 км мгла 9/3 540 м
[Cu med, cong Cs]
+30.9 +25.5 73 +45 +47 опасность
перегрева
1006.6 1005.9
06 15.02 З 6 20 км мгла 6/3 540 м
[Cu med, cong Ac trans Cs]
+30.8 +23.3 64 +41 +42 опасность
перегрева
1005.8 1005.1
09 15.02 З 2 20 км мгла 5/1 500 м
[Cu med, cong Cs]
+27.6 +24.5 83 +39 +39 очень
душно
1007.4 1006.7
12 15.02 З 6 20 км мгла 6/3 480 м
[Cu med, cong Ac trans Cs]
+29.2 +23.2 70 +39 +39 очень
душно
1008.1 1007.4
15 15.02 ЮЗ 10 15 км слаб. ливневой дождь 10/6 480 м
[Cb cap Ac As]
+25.9 +25.1 95 +37 +37 очень
душно
1006.5 1005.8 1
18 15.02 ЮЗ 5 15 км осадки на расстоянии {ливн. осадки} 10/6 480 м
[Cb cap Ac As]
+25.6 +25.1 97 +37 +37 очень
душно
1006.6 1005.9 3
21 15.02 З 7 15 км в посл. час ливневой дождь 10/5 480 м
[Cb cap Ac As]
+25.0 +22.0 83 +32 +32 очень
душно
1007.9 1007.2 10
00 16.02 З 7 20 км мгла 10/4 480 м
[Cb cap Ac As]
+28.2 +23.2 74 +38 +39 очень
душно
1008.7 1008.0 +24.1 14
03 16.02 ЮЗ 8 20 км мгла 10/1 540 м
[Cu med, cong Ac trans Cs]
+30.5 +23.3 65 +41 +41 опасность
перегрева
1006.8 1006.1
06 16.02 ЮЗ 9 15 км мгла 9/3 500 м
[Cu Sc Cs]
+30.2 +24.0 69 +42 +42 опасность
перегрева
1005.5 1004.8
09 16.02 З 9 15 км мгла 10/1 500 м
[Cu Sc Ac trans Cs]
+29.0 +23.2 71 +39 +39 очень
душно
1006.1 1005.4
12 16.02 З 9 15 км мгла 10/3 480 м
[Cu Sc Ac trans Cs]
+28.9 +23.3 72 +39 +39 очень
душно
1007.6 1006.9
21 16.02 ЮЗ 5 10 км осадки на расстоянии {ливн. осадки} 9/5 480 м
[Cu Sc Ac trans Cs]
+27.2 +23.5 80 +37 +37 очень
душно
1007.3 1006.6 16
00 17.02 З 6 20 км мгла 9/1 540 м
[Cu med, cong Ac trans Cs]
+30.0 +24.0 70 +23.5 16
03 17.02 З 6 18 км мгла 8/3 540 м
[Cu med, cong Ac trans Cs]
+31.1 +23.8 65 +42 +44 опасность
перегрева
1005.6 1004.9
06 17.02 З 8 20 км мгла 8/5 540 м
[Cb cap Ac trans Cs]
+29.6 +23.4 69 +40 +40 очень
душно
1004.6 1003.9
09 17.02 З 9 20 км осадки на расстоянии 9/5 500 м
[Cb cap Ac trans Cs]
+27.7 +24.2 81 +39 +39 очень
душно
1006.2 1005.5
12 17.02 З 6 15 км мгла 9/5 500 м
[Cb cap Ac trans Cs]
+26.9 +24.9 89 +39 +39 очень
душно
1007.4 1006.7
15 17.02 З 5 15 км мгла 6/4 480 м
[Cu Sc Cs]
+28.0 +23.7 77 +38 +38 очень
душно
1006.0 1005.3
18 17.02 З 4 15 км в посл. час ливневой дождь 8/3 480 м
[Cu Sc Cs]
+27.0 +24.1 84 +37 +37 очень
душно
1005.5 1004.8 1
21 17.02 З 5 15 км слаб. ливневой дождь 9/4 480 м
[Cu Sc Cs]
+28.1 +23.5 76 +38 +38 очень
душно
1007.0 1006.3 0.4
00 18.02 ЮЗ 6 15 км мгла 9/3 540 м
[Cu Sc Cs]
+30.0 +23.7 69 +41 +45 опасность
перегрева
1007.6 1006.9 +26.1 0.3 2
03 18.02 ЮЗ 6 15 км мгла 9/3 540 м
[Cu Sc Cs]
+31.0 +23.7 65 +42 +43 опасность
перегрева
1006.1 1005.4
06 18.02 З 6 15 км мгла 6/6
[Cu med, cong Ac trans Cs]
+29.9 +22.9 66 +40 +40 очень
душно
1005.5 1004.8

 

Местоположение метеостанции Манда (Соломоновы Острова): широта -8.33 долгота 157.26 высота над уровнем моря 6 м.

В архиве по умолчанию представлена погода в Манде за последнюю неделю. Архивные данные за месяц целиком и за предыдущие месяцы, начиная с января 2011 года, Вы можете получить, выбрав интересующий диапазон дат из раскрывающегося списка и нажав кнопку "Ввод!".


*Определитесь, кто Вы:
робот инопланетянин человек

Внимание! Время в таблицах - всемирное. Для получения местного времени необходимо прибавить поправку, которая равна 11 ч.

Смотрите также архив погоды в соседних городах и на ближайших метеорологических станциях:

Погода на Острове Таро (Соломоновы Острова) (204 км)
Погода в Хониаре (Соломоновы Острова) (322 км)
Погода в Хониара аэропорту (Соломоновы Острова) (330 км)
Погода в Ауки (Соломоновы Острова) (385 км)
Погода на Мисиме (Папуа Новая Гвинея) (552 км)
Погода в Токуа (Папуа Новая Гвинея) (701 км)
Погода в Герни (Папуа Новая Гвинея) (792 км)
Погода в Кавиенге (Папуа Новая Гвинея) (959 км)
Погода на Островах Санта-Круз (Соломоновы Острова) (972 км)
Погода на Атолле Капингамаранги (Микронезия) (1083 км)

Пояснения к столбцам:

Ветер - указаны скорость ветра в м/с - средняя за 10 мин, порывы в срок и между сроками (в фигурных скобках) и направление, откуда дует ветер: С - северный, СВ - северо-восточный, В - восточный, ЮВ - юго-восточный, Ю - южный, ЮЗ - юго-западный, З - западный, СЗ - северо-западный.
Видимость - горизонтальная дальность видимости в метрах или километрах. При видимости от 1 до 10 км при отсутствии осадков обычно наблюдается дымка, при ухудшении видимости до 1 км и менее - туман. В сухую погоду видимость может ухудшаться дымом, пылью или мглою.
Явления - указаны атмосферные явления, наблюдавшиеся в срок или в последний час перед сроком; фигурными скобками обозначены явления, наблюдавшиеся между сроками (за 1-3 часа до срока); квадратными скобками обозначены град или гололедные отложения с указанием их диаметра в мм.
Облачность - указаны через наклонную черту общая и нижняя облачность в баллах и высота нижней границы облаков в метрах; квадратными скобками обозначены формы облаков: Ci - перистые, Cs - перисто-слоистые, Cc - перисто-кучевые, Ac - высококучевые, As - высокослоистые, Sc - слоисто-кучевые, Ns - слоисто-дождевые, Cu - кучевые, Cb - кучево-дождевые. Подробнее классификацию облаков см. в Атласе облаков (PDF).
T - Температура воздуха - температура, измеренная на высоте 2 м над землей.
Td - Температура точки росы - температура, при понижении до которой содержащийся в воздухе водяной пар достигнет насыщения.
f - Относительная влажность воздуха - влажноcть воздуха, измеренная на высоте 2 м над землей.
Te - Эффективная температура - температура, которую ощущает одетый по сезону человек в тени. Характеристика душности погоды. При расчете учитывается влияние влажности воздуха и скорости ветра на теплоощущения человека.
Tes - Эффективная температура на солнце - температура, которую ощущает человек, с поправкой на солнечный нагрев. Характеристика знойности погоды. Зависит от высоты солнца над горизонтом, облачности и скорости ветра. Ночью, в пасмурную погоду, а также при ветре 12 м/с и более поправка равна нулю.
P - Атмосферное давление - приведенное к уровню моря атмосферное давление.
Po - Атмосферное давление - измеренное на уровне метеостанции атмосферное давление.
Tmin - Минимальная температура - минимум температуры воздуха на высоте 2 м над землей.
Tmax - Максимальная температура - максимум температуры воздуха на высоте 2 м над землей.
R - Количество осадков - Количество выпавших осадков за период времени, мм. При наведении курсора мыши на число - период времени, за который выпало указанное количество осадков.
R24 - Количество осадков - Количество выпавших осадков за 24 часа, мм.
S - Снежный покров - Высота снежного покрова, см. При наведении курсора мыши на число - состояние снежного покрова и степень покрытия местности в баллах.